Time,TemperatureF,DewpointF,PressureIn,WindDirection,WindDirectionDegrees,WindSpeedMPH,WindSpeedGustMPH,Humidity,HourlyPrecipIn,Conditions,Clouds,dailyrainin,SoftwareType,DateUTC
2013-04-15 00:03:00,72.0,72.0,29.71,South,181,7.0,12.1,100,0.00,,,-99.99,FreeWX 2.03,2013-04-15 05:03:00,
2013-04-15 00:08:00,72.0,72.0,29.71,South,182,8.0,14.3,100,0.00,,,-99.99,FreeWX 2.03,2013-04-15 05:08:00,
2013-04-15 00:13:00,72.0,72.0,29.71,South,183,8.0,15.2,100,0.00,,,-99.99,FreeWX 2.03,2013-04-15 05:13:00,
2013-04-15 00:18:00,71.8,71.8,29.71,South,183,8.0,14.8,100,0.00,,,-99.99,FreeWX 2.03,2013-04-15 05:18:00,
2013-04-15 00:23:00,71.8,71.8,29.71,South,183,8.0,13.4,100,0.00,,,-99.99,FreeWX 2.03,2013-04-15 05:23:00,
2013-04-15 00:28:00,71.8,71.8,29.71,South,182,8.0,14.3,100,0.00,,,-99.99,FreeWX 2.03,2013-04-15 05:28:00,
2013-04-15 00:33:00,71.8,71.8,29.71,South,182,8.0,15.9,100,0.00,,,-99.99,FreeWX 2.03,2013-04-15 05:33:00,
2013-04-15 00:38:00,71.8,71.8,29.71,South,184,9.0,15.2,100,0.00,,,-99.99,FreeWX 2.03,2013-04-15 05:38:00,
2013-04-15 00:43:00,71.8,71.8,29.71,South,183,8.0,13.4,100,0.00,,,-99.99,FreeWX 2.03,2013-04-15 05:43:00,
2013-04-15 00:48:00,71.8,71.8,29.71,South,183,8.0,15.2,100,0.00,,,-99.99,FreeWX 2.03,2013-04-15 05:48:00,
2013-04-15 00:53:00,71.6,71.6,29.71,South,183,8.0,13.4,100,0.00,,,-99.99,FreeWX 2.03,2013-04-15 05:53:00,
2013-04-15 00:58:00,71.6,71.6,29.71,South,181,8.0,14.3,100,0.00,,,-99.99,FreeWX 2.03,2013-04-15 05:58:00,
2013-04-15 01:03:00,71.6,71.6,29.71,South,182,8.0,15.2,100,0.00,,,-99.99,FreeWX 2.03,2013-04-15 06:03:00,
2013-04-15 01:08:00,71.6,71.6,29.71,South,184,7.0,13.0,100,0.00,,,-99.99,FreeWX 2.03,2013-04-15 06:08:00,
2013-04-15 01:13:00,71.6,71.6,29.71,South,186,8.0,14.8,100,0.00,,,-99.99,FreeWX 2.03,2013-04-15 06:13:00,
2013-04-15 01:18:00,71.6,71.6,29.71,South,186,9.0,12.5,100,0.00,,,-99.99,FreeWX 2.03,2013-04-15 06:18:00,
2013-04-15 01:23:00,71.4,71.4,29.71,South,184,8.0,15.4,100,0.00,,,-99.99,FreeWX 2.03,2013-04-15 06:23:00,
2013-04-15 01:28:00,71.4,71.4,29.71,South,184,8.0,13.4,100,0.00,,,-99.99,FreeWX 2.03,2013-04-15 06:28:00,
2013-04-15 01:33:00,71.4,71.4,29.71,South,185,8.0,14.3,100,0.00,,,-99.99,FreeWX 2.03,2013-04-15 06:33:00,
2013-04-15 01:38:00,71.4,71.4,29.71,South,184,8.0,13.0,100,0.00,,,-99.99,FreeWX 2.03,2013-04-15 06:38:00,
2013-04-15 01:43:00,71.6,71.6,29.71,South,183,8.0,13.9,100,0.00,,,-99.99,FreeWX 2.03,2013-04-15 06:43:00,
2013-04-15 01:48:00,71.6,71.6,29.71,South,187,8.0,15.4,100,0.00,,,-99.99,FreeWX 2.03,2013-04-15 06:48:00,
2013-04-15 01:53:00,71.6,71.6,29.71,South,188,8.0,13.4,100,0.00,,,-99.99,FreeWX 2.03,2013-04-15 06:53:00,
2013-04-15 01:58:00,71.6,71.6,29.71,South,188,8.0,16.3,100,0.00,,,-99.99,FreeWX 2.03,2013-04-15 06:58:00,
2013-04-15 02:03:00,71.8,71.8,29.71,South,187,9.0,15.4,100,0.00,,,-99.99,FreeWX 2.03,2013-04-15 07:03:00,
2013-04-15 02:51:00,72.0,72.0,29.68,South,186,9.0,14.8,100,0.00,,,-99.99,FreeWX 2.03,2013-04-15 07:51:00,
2013-04-15 02:56:00,72.0,72.0,29.68,South,183,9.0,19.5,100,0.00,,,-99.99,FreeWX 2.03,2013-04-15 07:56:00,
2013-04-15 03:01:00,72.0,72.0,29.68,South,184,10.0,20.1,100,0.00,,,-99.99,FreeWX 2.03,2013-04-15 08:01:00,
2013-04-15 03:06:00,72.0,72.0,29.68,South,189,10.0,21.9,100,0.00,,,-99.99,FreeWX 2.03,2013-04-15 08:06:00,
2013-04-15 03:11:00,71.8,71.8,29.68,South,187,11.0,20.6,100,0.00,,,-99.99,FreeWX 2.03,2013-04-15 08:11:00,
2013-04-15 03:26:00,71.8,71.8,29.68,South,188,12.0,20.1,100,0.00,,,-99.99,FreeWX 2.03,2013-04-15 08:26:00,
2013-04-15 03:31:00,71.8,71.8,29.68,South,189,13.0,23.7,100,0.00,,,-99.99,FreeWX 2.03,2013-04-15 08:31:00,
2013-04-15 03:36:00,71.8,71.8,29.68,SSW,192,15.0,24.8,100,0.00,,,-99.99,FreeWX 2.03,2013-04-15 08:36:00,
2013-04-15 03:41:00,71.8,71.8,29.68,South,191,14.0,21.5,100,0.00,,,-99.99,FreeWX 2.03,2013-04-15 08:41:00,
2013-04-15 03:46:00,71.8,71.8,29.68,SSW,193,14.0,25.7,100,0.00,,,-99.99,FreeWX 2.03,2013-04-15 08:46:00,
2013-04-15 03:51:00,71.8,71.8,29.68,SSW,193,16.0,29.1,100,0.00,,,-99.99,FreeWX 2.03,2013-04-15 08:51:00,
2013-04-15 03:56:00,71.8,71.8,29.68,SSW,192,15.0,22.8,100,0.00,,,-99.99,FreeWX 2.03,2013-04-15 08:56:00,
2013-04-15 04:01:00,71.8,71.8,29.68,SSW,194,14.0,25.7,100,0.00,,,-99.99,FreeWX 2.03,2013-04-15 09:01:00,
2013-04-15 04:06:00,71.8,71.8,29.68,SSW,196,15.0,26.2,100,0.00,,,-99.99,FreeWX 2.03,2013-04-15 09:06:00,
2013-04-15 04:12:00,71.8,71.8,29.68,SSW,197,15.0,21.5,100,0.00,,,-99.99,FreeWX 2.03,2013-04-15 09:12:00,
2013-04-15 04:17:00,71.6,71.6,29.68,SSW,198,13.0,20.6,100,0.00,,,-99.99,FreeWX 2.03,2013-04-15 09:17:00,
2013-04-15 04:22:00,71.6,71.6,29.68,SSW,197,14.0,24.4,100,0.00,,,-99.99,FreeWX 2.03,2013-04-15 09:22:00,
2013-04-15 04:27:00,71.4,71.4,29.71,SSW,197,15.0,21.5,100,0.00,,,-99.99,FreeWX 2.03,2013-04-15 09:27:00,
2013-04-15 04:32:00,71.2,71.2,29.71,SSW,196,14.0,23.7,100,0.00,,,-99.99,FreeWX 2.03,2013-04-15 09:32:00,
2013-04-15 04:37:00,71.2,71.2,29.71,SSW,196,14.0,22.4,100,0.00,,,-99.99,FreeWX 2.03,2013-04-15 09:37:00,
2013-04-15 04:42:00,71.2,71.2,29.71,SSW,196,14.0,24.2,100,0.00,,,-99.99,FreeWX 2.03,2013-04-15 09:42:00,
2013-04-15 04:47:00,71.1,71.1,29.71,SSW,196,15.0,23.7,100,0.00,,,-99.99,FreeWX 2.03,2013-04-15 09:47:00,
2013-04-15 04:52:00,71.1,71.1,29.71,SSW,196,14.0,20.6,100,0.00,,,-99.99,FreeWX 2.03,2013-04-15 09:52:00,
2013-04-15 04:57:00,71.2,71.2,29.71,SSW,195,14.0,24.4,100,0.00,,,-99.99,FreeWX 2.03,2013-04-15 09:57:00,
2013-04-15 05:02:00,71.2,71.2,29.71,SSW,194,13.0,23.3,100,0.00,,,-99.99,FreeWX 2.03,2013-04-15 10:02:00,
2013-04-15 05:07:00,71.2,70.9,29.71,SSW,195,13.0,21.9,99,0.00,,,-99.99,FreeWX 2.03,2013-04-15 10:07:00,
2013-04-15 05:12:00,71.2,70.9,29.71,SSW,195,13.0,18.1,99,0.00,,,-99.99,FreeWX 2.03,2013-04-15 10:12:00,
2013-04-15 05:17:00,71.2,70.9,29.71,SSW,194,12.0,18.1,99,0.00,,,-99.99,FreeWX 2.03,2013-04-15 10:17:00,
2013-04-15 05:22:00,71.2,70.9,29.71,SSW,195,11.0,18.1,99,0.00,,,-99.99,FreeWX 2.03,2013-04-15 10:22:00,
2013-04-15 05:27:00,71.2,70.9,29.71,SSW,194,11.0,17.7,99,0.00,,,-99.99,FreeWX 2.03,2013-04-15 10:27:00,
2013-04-15 05:32:00,71.2,70.9,29.71,SSW,194,11.0,17.2,99,0.00,,,-99.99,FreeWX 2.03,2013-04-15 10:32:00,
2013-04-15 05:37:00,71.2,70.9,29.71,SSW,193,11.0,17.7,99,0.00,,,-99.99,FreeWX 2.03,2013-04-15 10:37:00,
2013-04-15 05:42:00,71.2,70.9,29.71,SSW,194,11.0,17.2,99,0.00,,,-99.99,FreeWX 2.03,2013-04-15 10:42:00,
2013-04-15 05:47:00,71.1,70.7,29.71,SSW,194,11.0,17.7,99,0.00,,,-99.99,FreeWX 2.03,2013-04-15 10:47:00,
2013-04-15 05:57:00,71.1,70.7,29.71,SSW,193,10.0,18.1,99,0.00,,,-99.99,FreeWX 2.03,2013-04-15 10:57:00,
2013-04-15 06:02:00,71.1,70.7,29.71,SSW,192,10.0,16.3,99,0.00,,,-99.99,FreeWX 2.03,2013-04-15 11:02:00,
2013-04-15 06:07:00,71.1,70.7,29.71,SSW,192,11.0,19.0,99,0.00,,,-99.99,FreeWX 2.03,2013-04-15 11:07:00,
2013-04-15 06:12:00,71.1,70.7,29.71,South,189,9.0,12.5,99,0.00,,,-99.99,FreeWX 2.03,2013-04-15 11:12:00,
2013-04-15 06:17:00,71.1,70.7,29.71,South,189,8.0,14.8,99,0.00,,,-99.99,FreeWX 2.03,2013-04-15 11:17:00,
2013-04-15 06:22:00,71.1,70.7,29.71,South,191,8.0,15.4,99,0.00,,,-99.99,FreeWX 2.03,2013-04-15 11:22:00,
2013-04-15 06:27:00,71.2,70.9,29.71,South,189,8.0,13.9,99,0.00,,,-99.99,FreeWX 2.03,2013-04-15 11:27:00,
2013-04-15 06:32:00,71.2,70.9,29.71,South,189,8.0,15.2,99,0.00,,,-99.99,FreeWX 2.03,2013-04-15 11:32:00,
2013-04-15 06:37:00,71.4,71.1,29.71,South,187,8.0,15.2,99,0.00,,,-99.99,FreeWX 2.03,2013-04-15 11:37:00,
2013-04-15 06:42:00,71.4,71.1,29.71,South,186,8.0,14.3,99,0.00,,,-99.99,FreeWX 2.03,2013-04-15 11:42:00,
2013-04-15 06:47:00,71.4,71.1,29.71,South,186,8.0,14.3,99,0.00,,,-99.99,FreeWX 2.03,2013-04-15 11:47:00,
2013-04-15 06:52:00,71.6,71.2,29.71,South,186,8.0,12.5,99,0.00,,,-99.99,FreeWX 2.03,2013-04-15 11:52:00,
2013-04-15 06:57:00,71.6,71.1,29.71,South,188,7.0,13.4,98,0.00,,,-99.99,FreeWX 2.03,2013-04-15 11:57:00,
2013-04-15 07:08:00,71.6,71.1,29.71,South,186,7.0,0.0,98,0.00,,,-99.99,FreeWX 2.03,2013-04-15 12:08:00,
2013-04-15 07:23:00,71.8,71.2,29.74,South,184,8.0,13.0,98,0.00,,,-99.99,FreeWX 2.03,2013-04-15 12:23:00,
2013-04-15 07:29:00,71.8,71.2,29.74,South,186,8.0,15.2,98,0.00,,,-99.99,FreeWX 2.03,2013-04-15 12:29:00,
2013-04-15 07:34:00,71.8,71.2,29.74,South,186,8.0,13.0,98,0.00,,,-99.99,FreeWX 2.03,2013-04-15 12:34:00,
2013-04-15 07:39:00,71.8,71.2,29.74,South,184,7.0,13.4,98,0.00,,,-99.99,FreeWX 2.03,2013-04-15 12:39:00,
2013-04-15 07:44:00,71.8,71.2,29.74,South,183,7.0,12.1,98,0.00,,,-99.99,FreeWX 2.03,2013-04-15 12:44:00,
2013-04-15 07:49:00,72.0,71.4,29.74,South,185,7.0,13.9,98,0.00,,,-99.99,FreeWX 2.03,2013-04-15 12:49:00,
2013-04-15 07:54:00,72.0,71.4,29.74,South,187,8.0,14.3,98,0.00,,,-99.99,FreeWX 2.03,2013-04-15 12:54:00,
2013-04-15 07:59:00,72.0,71.4,29.74,South,189,8.0,12.5,98,0.00,,,-99.99,FreeWX 2.03,2013-04-15 12:59:00,
2013-04-15 08:04:00,72.0,71.4,29.74,South,186,7.0,11.0,98,0.00,,,-99.99,FreeWX 2.03,2013-04-15 13:04:00,
2013-04-15 08:09:00,72.1,71.6,29.74,South,185,7.0,15.2,98,0.00,,,-99.99,FreeWX 2.03,2013-04-15 13:09:00,
2013-04-15 08:14:00,72.3,71.8,29.74,South,189,8.0,13.0,98,0.00,,,-99.99,FreeWX 2.03,2013-04-15 13:14:00,
2013-04-15 08:19:00,72.3,71.8,29.74,South,187,8.0,12.1,98,0.00,,,-99.99,FreeWX 2.03,2013-04-15 13:19:00,
2013-04-15 08:24:00,72.5,72.0,29.74,South,186,8.0,14.3,98,0.00,,,-99.99,FreeWX 2.03,2013-04-15 13:24:00,
2013-04-15 08:29:00,72.7,72.1,29.74,South,188,8.0,15.9,98,0.00,,,-99.99,FreeWX 2.03,2013-04-15 13:29:00,
2013-04-15 08:34:00,72.7,72.1,29.74,South,188,8.0,13.9,98,0.00,,,-99.99,FreeWX 2.03,2013-04-15 13:34:00,
2013-04-15 08:39:00,72.9,72.3,29.74,South,186,8.0,11.2,98,0.00,,,-99.99,FreeWX 2.03,2013-04-15 13:39:00,
2013-04-15 08:44:00,73.0,72.5,29.74,South,183,8.0,14.3,98,0.00,,,-99.99,FreeWX 2.03,2013-04-15 13:44:00,
2013-04-15 08:49:00,73.2,72.7,29.74,South,180,8.0,13.4,98,0.00,,,-99.99,FreeWX 2.03,2013-04-15 13:49:00,
2013-04-15 08:54:00,73.2,72.3,29.74,South,179,8.0,11.6,97,0.00,,,-99.99,FreeWX 2.03,2013-04-15 13:54:00,
2013-04-15 08:59:00,73.4,72.5,29.74,South,183,7.0,13.9,97,0.00,,,-99.99,FreeWX 2.03,2013-04-15 13:59:00,
2013-04-15 09:04:00,73.4,72.5,29.74,South,185,7.0,14.3,97,0.00,,,-99.99,FreeWX 2.03,2013-04-15 14:04:00,
2013-04-15 09:09:00,73.4,72.5,29.74,South,185,8.0,16.3,97,0.00,,,-99.99,FreeWX 2.03,2013-04-15 14:09:00,
2013-04-15 09:14:00,73.6,72.7,29.76,South,185,8.0,15.2,97,0.00,,,-99.99,FreeWX 2.03,2013-04-15 14:14:00,
2013-04-15 09:19:00,73.8,72.9,29.76,South,184,8.0,11.6,97,0.00,,,-99.99,FreeWX 2.03,2013-04-15 14:19:00,
2013-04-15 09:24:00,73.9,72.7,29.76,South,183,8.0,15.4,96,0.00,,,-99.99,FreeWX 2.03,2013-04-15 14:24:00,
2013-04-15 09:29:00,74.1,72.9,29.76,South,185,8.0,15.4,96,0.00,,,-99.99,FreeWX 2.03,2013-04-15 14:29:00,
2013-04-15 09:34:00,74.5,73.2,29.76,South,186,8.0,13.0,96,0.00,,,-99.99,FreeWX 2.03,2013-04-15 14:34:00,
2013-04-15 09:39:00,74.8,73.6,29.76,South,188,9.0,16.8,96,0.00,,,-99.99,FreeWX 2.03,2013-04-15 14:39:00,
2013-04-15 09:44:00,75.2,73.6,29.74,South,189,11.0,19.5,95,0.00,,,-99.99,FreeWX 2.03,2013-04-15 14:44:00,
2013-04-15 09:49:00,75.6,73.9,29.74,South,186,10.0,14.8,95,0.00,,,-99.99,FreeWX 2.03,2013-04-15 14:49:00,
2013-04-15 09:54:00,75.7,73.9,29.74,South,186,9.0,15.2,94,0.00,,,-99.99,FreeWX 2.03,2013-04-15 14:54:00,
2013-04-15 09:59:00,75.7,73.6,29.76,South,187,10.0,19.0,93,0.00,,,-99.99,FreeWX 2.03,2013-04-15 14:59:00,
2013-04-15 10:04:00,75.7,73.6,29.76,South,186,10.0,18.1,93,0.00,,,-99.99,FreeWX 2.03,2013-04-15 15:04:00,
2013-04-15 10:09:00,75.9,73.4,29.76,South,184,9.0,15.9,92,0.00,,,-99.99,FreeWX 2.03,2013-04-15 15:09:00,
2013-04-15 10:14:00,76.3,73.8,29.76,South,184,8.0,17.7,92,0.00,,,-99.99,FreeWX 2.03,2013-04-15 15:14:00,
2013-04-15 10:19:00,76.6,73.8,29.76,South,187,10.0,19.9,91,0.00,,,-99.99,FreeWX 2.03,2013-04-15 15:19:00,
2013-04-15 10:24:00,76.8,73.9,29.76,South,185,10.0,20.1,91,0.00,,,-99.99,FreeWX 2.03,2013-04-15 15:24:00,
2013-04-15 10:29:00,76.8,73.6,29.76,South,183,10.0,16.3,90,0.00,,,-99.99,FreeWX 2.03,2013-04-15 15:29:00,
2013-04-15 10:40:00,77.5,74.3,29.76,South,183,10.0,20.6,90,0.00,,,-99.99,FreeWX 2.03,2013-04-15 15:40:00,
2013-04-15 10:45:00,78.4,74.8,29.76,South,183,10.0,15.2,89,0.00,,,-99.99,FreeWX 2.03,2013-04-15 15:45:00,
2013-04-15 10:50:00,79.3,75.4,29.76,South,181,9.0,19.9,88,0.00,,,-99.99,FreeWX 2.03,2013-04-15 15:50:00,
2013-04-15 10:55:00,79.3,75.2,29.76,South,182,10.0,17.2,87,0.00,,,-99.99,FreeWX 2.03,2013-04-15 15:55:00,
2013-04-15 11:00:00,79.0,74.5,29.76,South,183,10.0,18.6,86,0.00,,,-99.99,FreeWX 2.03,2013-04-15 16:00:00,
2013-04-15 11:05:00,79.0,74.1,29.76,South,181,10.0,16.8,85,0.00,,,-99.99,FreeWX 2.03,2013-04-15 16:05:00,
2013-04-15 11:10:00,79.5,75.0,29.76,South,181,10.0,15.2,86,0.00,,,-99.99,FreeWX 2.03,2013-04-15 16:10:00,
2013-04-15 11:15:00,80.2,75.4,29.76,South,180,10.0,16.3,85,0.00,,,-99.99,FreeWX 2.03,2013-04-15 16:15:00,
2013-04-15 11:20:00,80.6,75.0,29.76,South,182,11.0,18.6,83,0.00,,,-99.99,FreeWX 2.03,2013-04-15 16:20:00,
2013-04-15 11:25:00,80.6,74.7,29.76,South,183,10.0,14.8,82,0.00,,,-99.99,FreeWX 2.03,2013-04-15 16:25:00,
2013-04-15 11:30:00,80.4,74.1,29.76,South,181,9.0,13.9,81,0.00,,,-99.99,FreeWX 2.03,2013-04-15 16:30:00,
2013-04-15 11:35:00,80.8,74.3,29.76,South,180,8.0,15.9,81,0.00,,,-99.99,FreeWX 2.03,2013-04-15 16:35:00,
2013-04-15 11:40:00,81.3,74.5,29.76,South,182,9.0,16.3,80,0.00,,,-99.99,FreeWX 2.03,2013-04-15 16:40:00,
2013-04-15 11:50:00,81.7,74.5,29.76,South,178,9.0,13.9,79,0.00,,,-99.99,FreeWX 2.03,2013-04-15 16:50:00,
2013-04-15 11:55:00,82.0,74.8,29.76,South,178,9.0,13.0,79,0.00,,,-99.99,FreeWX 2.03,2013-04-15 16:55:00,
2013-04-15 12:00:00,82.4,74.8,29.76,South,176,9.0,15.2,78,0.00,,,-99.99,FreeWX 2.03,2013-04-15 17:00:00,
2013-04-15 12:05:00,82.8,75.2,29.76,South,172,9.0,14.3,78,0.00,,,-99.99,FreeWX 2.03,2013-04-15 17:05:00,
2013-04-15 12:10:00,83.1,75.2,29.76,South,175,9.0,13.4,77,0.00,,,-99.99,FreeWX 2.03,2013-04-15 17:10:00,
2013-04-15 12:15:00,83.3,74.8,29.76,South,175,9.0,14.8,76,0.00,,,-99.99,FreeWX 2.03,2013-04-15 17:15:00,
2013-04-15 12:26:00,83.1,74.3,29.76,SSE,168,10.0,14.3,75,0.00,,,-99.99,FreeWX 2.03,2013-04-15 17:26:00,
2013-04-15 12:41:00,82.8,73.9,29.76,SSE,166,9.0,15.4,75,0.00,,,-99.99,FreeWX 2.03,2013-04-15 17:41:00,
2013-04-15 12:46:00,82.4,73.2,29.76,SSE,168,9.0,14.3,74,0.00,,,-99.99,FreeWX 2.03,2013-04-15 17:46:00,
2013-04-15 12:51:00,81.9,73.2,29.76,SSE,168,8.0,11.6,75,0.00,,,-99.99,FreeWX 2.03,2013-04-15 17:51:00,
2013-04-15 12:57:00,81.1,72.5,29.76,SSE,168,8.0,14.8,75,0.00,,,-99.99,FreeWX 2.03,2013-04-15 17:57:00,
2013-04-15 13:07:00,79.9,72.3,29.76,South,172,9.0,14.3,78,0.00,,,-99.99,FreeWX 2.03,2013-04-15 18:07:00,
2013-04-15 13:12:00,80.1,73.4,29.74,SSE,166,9.0,14.3,80,0.00,,,-99.99,FreeWX 2.03,2013-04-15 18:12:00,
2013-04-15 13:17:00,80.8,74.3,29.74,SSE,162,8.0,13.4,81,0.00,,,-99.99,FreeWX 2.03,2013-04-15 18:17:00,
2013-04-15 13:22:00,81.3,74.5,29.74,SSE,168,8.0,13.4,80,0.00,,,-99.99,FreeWX 2.03,2013-04-15 18:22:00,
2013-04-15 13:27:00,81.3,74.1,29.74,South,172,9.0,15.9,79,0.00,,,-99.99,FreeWX 2.03,2013-04-15 18:27:00,
2013-04-15 13:32:00,81.0,73.4,29.74,South,171,9.0,14.3,78,0.00,,,-99.99,FreeWX 2.03,2013-04-15 18:32:00,
2013-04-15 13:37:00,80.8,73.2,29.74,SSE,168,8.0,12.5,78,0.00,,,-99.99,FreeWX 2.03,2013-04-15 18:37:00,
2013-04-15 13:42:00,81.0,73.8,29.74,SSE,166,8.0,13.9,79,0.00,,,-99.99,FreeWX 2.03,2013-04-15 18:42:00,
2013-04-15 13:47:00,81.3,74.1,29.74,SSE,166,8.0,15.2,79,0.00,,,-99.99,FreeWX 2.03,2013-04-15 18:47:00,
2013-04-15 13:52:00,81.9,74.7,29.74,SSE,166,8.0,14.3,79,0.00,,,-99.99,FreeWX 2.03,2013-04-15 18:52:00,
2013-04-15 13:57:00,82.0,74.5,29.74,SSE,165,8.0,14.8,78,0.00,,,-99.99,FreeWX 2.03,2013-04-15 18:57:00,
2013-04-15 14:02:00,82.0,74.5,29.74,SSE,157,8.0,15.4,78,0.00,,,-99.99,FreeWX 2.03,2013-04-15 19:02:00,
2013-04-15 14:07:00,82.0,74.5,29.74,SSE,156,9.0,15.9,78,0.00,,,-99.99,FreeWX 2.03,2013-04-15 19:07:00,
2013-04-15 14:12:00,82.0,74.5,29.74,SSE,155,10.0,17.7,78,0.00,,,-99.99,FreeWX 2.03,2013-04-15 19:12:00,
2013-04-15 14:17:00,82.0,74.1,29.74,SSE,150,10.0,16.8,77,0.00,,,-99.99,FreeWX 2.03,2013-04-15 19:17:00,
2013-04-15 14:22:00,82.0,74.1,29.74,SE,144,11.0,16.8,77,0.00,,,-99.99,FreeWX 2.03,2013-04-15 19:22:00,
2013-04-15 14:27:00,82.2,74.3,29.74,SE,143,8.0,12.1,77,0.00,,,-99.99,FreeWX 2.03,2013-04-15 19:27:00,
2013-04-15 14:37:00,82.4,74.1,29.74,SE,144,9.0,15.4,76,0.00,,,-99.99,FreeWX 2.03,2013-04-15 19:37:00,
2013-04-15 14:42:00,82.2,73.9,29.74,SE,142,12.0,16.3,76,0.00,,,-99.99,FreeWX 2.03,2013-04-15 19:42:00,
2013-04-15 14:53:00,81.9,73.6,29.74,SE,142,12.0,18.6,76,0.00,,,-99.99,FreeWX 2.03,2013-04-15 19:53:00,
2013-04-15 15:03:00,81.7,73.4,29.71,SE,142,12.0,16.8,76,0.00,,,-99.99,FreeWX 2.03,2013-04-15 20:03:00,
2013-04-15 15:08:00,81.5,73.2,29.71,SE,142,11.0,14.8,76,0.00,,,-99.99,FreeWX 2.03,2013-04-15 20:08:00,
2013-04-15 15:13:00,81.7,73.8,29.74,SE,142,9.0,12.5,77,0.00,,,-99.99,FreeWX 2.03,2013-04-15 20:13:00,
2013-04-15 15:18:00,81.9,73.9,29.74,SE,140,7.0,11.2,77,0.00,,,-99.99,FreeWX 2.03,2013-04-15 20:18:00,
2013-04-15 15:23:00,82.4,74.5,29.74,SE,140,7.0,11.6,77,0.00,,,-99.99,FreeWX 2.03,2013-04-15 20:23:00,
2013-04-15 15:28:00,82.4,74.1,29.74,SE,142,9.0,16.3,76,0.00,,,-99.99,FreeWX 2.03,2013-04-15 20:28:00,
2013-04-15 15:33:00,82.4,73.6,29.74,SE,140,9.0,13.9,75,0.00,,,-99.99,FreeWX 2.03,2013-04-15 20:33:00,
2013-04-15 15:38:00,82.4,74.1,29.74,SE,138,8.0,11.0,76,0.00,,,-99.99,FreeWX 2.03,2013-04-15 20:38:00,
2013-04-15 15:43:00,82.4,73.6,29.71,SE,138,7.0,13.4,75,0.00,,,-99.99,FreeWX 2.03,2013-04-15 20:43:00,
2013-04-15 15:48:00,82.4,73.6,29.71,SE,135,8.0,14.3,75,0.00,,,-99.99,FreeWX 2.03,2013-04-15 20:48:00,
2013-04-15 15:53:00,82.4,73.6,29.71,SE,130,9.0,14.8,75,0.00,,,-99.99,FreeWX 2.03,2013-04-15 20:53:00,
2013-04-15 15:58:00,82.4,73.6,29.71,SE,130,9.0,13.4,75,0.00,,,-99.99,FreeWX 2.03,2013-04-15 20:58:00,
2013-04-15 16:03:00,82.4,73.6,29.71,SE,134,9.0,15.2,75,0.00,,,-99.99,FreeWX 2.03,2013-04-15 21:03:00,
2013-04-15 16:08:00,82.2,73.9,29.71,SE,131,9.0,14.3,76,0.00,,,-99.99,FreeWX 2.03,2013-04-15 21:08:00,
2013-04-15 16:13:00,82.2,73.9,29.71,SE,129,9.0,15.2,76,0.00,,,-99.99,FreeWX 2.03,2013-04-15 21:13:00,
2013-04-15 16:18:00,82.2,73.9,29.71,SE,134,9.0,16.8,76,0.00,,,-99.99,FreeWX 2.03,2013-04-15 21:18:00,
2013-04-15 16:23:00,82.0,73.8,29.71,SE,138,9.0,15.4,76,0.00,,,-99.99,FreeWX 2.03,2013-04-15 21:23:00,
2013-04-15 16:28:00,81.9,73.9,29.71,SE,138,10.0,15.9,77,0.00,,,-99.99,FreeWX 2.03,2013-04-15 21:28:00,
2013-04-15 16:33:00,81.9,73.9,29.71,SE,136,10.0,15.2,77,0.00,,,-99.99,FreeWX 2.03,2013-04-15 21:33:00,
2013-04-15 16:38:00,81.9,73.9,29.71,SE,134,10.0,18.6,77,0.00,,,-99.99,FreeWX 2.03,2013-04-15 21:38:00,
2013-04-15 16:43:00,81.5,73.6,29.71,SE,133,11.0,18.6,77,0.00,,,-99.99,FreeWX 2.03,2013-04-15 21:43:00,
2013-04-15 16:48:00,81.1,73.2,29.71,SE,135,12.0,17.2,77,0.00,,,-99.99,FreeWX 2.03,2013-04-15 21:48:00,
2013-04-15 16:53:00,81.0,73.4,29.71,SE,137,11.0,15.9,78,0.00,,,-99.99,FreeWX 2.03,2013-04-15 21:53:00,
2013-04-15 16:58:00,80.8,73.6,29.68,SE,138,11.0,15.9,79,0.00,,,-99.99,FreeWX 2.03,2013-04-15 21:58:00,
2013-04-15 17:03:00,81.0,73.8,29.68,SE,139,10.0,14.8,79,0.00,,,-99.99,FreeWX 2.03,2013-04-15 22:03:00,
2013-04-15 17:08:00,81.0,73.8,29.68,SE,138,11.0,17.2,79,0.00,,,-99.99,FreeWX 2.03,2013-04-15 22:08:00,
2013-04-15 17:13:00,80.6,73.4,29.68,SE,137,12.0,17.7,79,0.00,,,-99.99,FreeWX 2.03,2013-04-15 22:13:00,
2013-04-15 17:18:00,80.6,73.4,29.68,SE,138,11.0,16.8,79,0.00,,,-99.99,FreeWX 2.03,2013-04-15 22:18:00,
2013-04-15 17:23:00,80.8,73.9,29.68,SE,139,11.0,18.6,80,0.00,,,-99.99,FreeWX 2.03,2013-04-15 22:23:00,
2013-04-15 17:28:00,81.0,73.8,29.68,SE,137,10.0,14.8,79,0.00,,,-99.99,FreeWX 2.03,2013-04-15 22:28:00,
2013-04-15 17:33:00,81.0,73.8,29.68,SE,136,9.0,15.4,79,0.00,,,-99.99,FreeWX 2.03,2013-04-15 22:33:00,
2013-04-15 17:38:00,81.0,73.8,29.68,SE,136,9.0,15.9,79,0.00,,,-99.99,FreeWX 2.03,2013-04-15 22:38:00,
2013-04-15 17:43:00,81.0,73.8,29.68,SE,137,11.0,16.8,79,0.00,,,-99.99,FreeWX 2.03,2013-04-15 22:43:00,
2013-04-15 17:48:00,81.0,73.8,29.68,SE,137,11.0,15.9,79,0.00,,,-99.99,FreeWX 2.03,2013-04-15 22:48:00,
2013-04-15 17:53:00,80.8,73.2,29.68,SE,135,11.0,16.8,78,0.00,,,-99.99,FreeWX 2.03,2013-04-15 22:53:00,
2013-04-15 17:58:00,80.4,73.2,29.68,SE,137,10.0,15.4,79,0.00,,,-99.99,FreeWX 2.03,2013-04-15 22:58:00,
2013-04-15 18:03:00,80.2,73.4,29.68,SE,139,10.0,18.1,80,0.00,,,-99.99,FreeWX 2.03,2013-04-15 23:03:00,
2013-04-15 18:08:00,80.2,73.4,29.68,SE,139,10.0,14.3,80,0.00,,,-99.99,FreeWX 2.03,2013-04-15 23:08:00,
2013-04-15 18:13:00,79.9,73.2,29.68,SE,138,10.0,15.4,80,0.00,,,-99.99,FreeWX 2.03,2013-04-15 23:13:00,
2013-04-15 18:18:00,79.5,73.2,29.68,SE,136,10.0,16.8,81,0.00,,,-99.99,FreeWX 2.03,2013-04-15 23:18:00,
2013-04-15 18:23:00,79.5,73.6,29.68,SE,136,10.0,14.3,82,0.00,,,-99.99,FreeWX 2.03,2013-04-15 23:23:00,
2013-04-15 18:28:00,79.7,74.1,29.68,SE,135,9.0,14.8,83,0.00,,,-99.99,FreeWX 2.03,2013-04-15 23:28:00,
2013-04-15 18:33:00,79.5,73.9,29.68,SE,134,9.0,14.3,83,0.00,,,-99.99,FreeWX 2.03,2013-04-15 23:33:00,
2013-04-15 18:38:00,79.2,73.6,29.68,SE,134,9.0,15.9,83,0.00,,,-99.99,FreeWX 2.03,2013-04-15 23:38:00,
2013-04-15 18:43:00,79.0,73.8,29.68,SE,139,10.0,15.2,84,0.00,,,-99.99,FreeWX 2.03,2013-04-15 23:43:00,
2013-04-15 18:48:00,79.0,74.1,29.68,SE,141,10.0,14.8,85,0.00,,,-99.99,FreeWX 2.03,2013-04-15 23:48:00,
2013-04-15 18:53:00,78.8,73.9,29.68,SE,146,10.0,13.9,85,0.00,,,-99.99,FreeWX 2.03,2013-04-15 23:53:00,
2013-04-15 18:58:00,78.6,74.1,29.68,SSE,148,9.0,13.4,86,0.00,,,-99.99,FreeWX 2.03,2013-04-15 23:58:00,
2013-04-15 19:03:00,78.4,74.3,29.68,SE,145,8.0,13.9,87,0.00,,,-99.99,FreeWX 2.03,2013-04-16 00:03:00,
2013-04-15 19:08:00,78.4,74.3,29.68,SE,139,9.0,13.9,87,0.00,,,-99.99,FreeWX 2.03,2013-04-16 00:08:00,
2013-04-15 19:13:00,78.1,73.9,29.71,SE,132,9.0,15.2,87,0.00,,,-99.99,FreeWX 2.03,2013-04-16 00:13:00,
2013-04-15 19:18:00,77.7,73.9,29.71,SE,132,10.0,13.9,88,0.00,,,-99.99,FreeWX 2.03,2013-04-16 00:18:00,
2013-04-15 19:23:00,77.5,73.8,29.71,SE,135,9.0,15.2,88,0.00,,,-99.99,FreeWX 2.03,2013-04-16 00:23:00,
2013-04-15 19:28:00,77.5,73.9,29.71,SE,139,8.0,16.3,89,0.00,,,-99.99,FreeWX 2.03,2013-04-16 00:28:00,
2013-04-15 19:33:00,77.2,73.8,29.71,SE,139,8.0,13.4,89,0.00,,,-99.99,FreeWX 2.03,2013-04-16 00:33:00,
2013-04-15 19:38:00,76.8,73.6,29.71,SE,141,8.0,13.9,90,0.00,,,-99.99,FreeWX 2.03,2013-04-16 00:38:00,
2013-04-15 19:43:00,76.6,73.4,29.71,SE,145,8.0,13.4,90,0.00,,,-99.99,FreeWX 2.03,2013-04-16 00:43:00,
2013-04-15 19:48:00,76.3,73.4,29.71,SE,139,9.0,13.9,91,0.00,,,-99.99,FreeWX 2.03,2013-04-16 00:48:00,
2013-04-15 19:53:00,76.1,73.2,29.71,SE,136,10.0,16.3,91,0.00,,,-99.99,FreeWX 2.03,2013-04-16 00:53:00,
2013-04-15 19:58:00,75.7,73.2,29.71,SE,139,10.0,14.3,92,0.00,,,-99.99,FreeWX 2.03,2013-04-16 00:58:00,
2013-04-15 20:03:00,75.7,73.6,29.71,SE,142,8.0,12.5,93,0.00,,,-99.99,FreeWX 2.03,2013-04-16 01:03:00,
2013-04-15 20:08:00,75.9,73.8,29.71,SE,143,8.0,15.2,93,0.00,,,-99.99,FreeWX 2.03,2013-04-16 01:08:00,
2013-04-15 20:13:00,75.7,73.6,29.71,SE,141,9.0,15.9,93,0.00,,,-99.99,FreeWX 2.03,2013-04-16 01:13:00,
2013-04-15 20:18:00,75.6,73.8,29.71,SE,143,9.0,13.4,94,0.00,,,-99.99,FreeWX 2.03,2013-04-16 01:18:00,
2013-04-15 20:23:00,75.6,73.8,29.71,SSE,147,9.0,15.2,94,0.00,,,-99.99,FreeWX 2.03,2013-04-16 01:23:00,
2013-04-15 20:29:00,75.6,73.9,29.71,SSE,149,10.0,17.7,95,0.00,,,-99.99,FreeWX 2.03,2013-04-16 01:29:00,
2013-04-15 20:34:00,75.6,73.9,29.71,SSE,151,10.0,16.8,95,0.00,,,-99.99,FreeWX 2.03,2013-04-16 01:34:00,
2013-04-15 20:39:00,75.4,73.8,29.71,SSE,152,10.0,16.8,95,0.00,,,-99.99,FreeWX 2.03,2013-04-16 01:39:00,
2013-04-15 20:44:00,75.4,73.8,29.74,SSE,154,10.0,14.8,95,0.00,,,-99.99,FreeWX 2.03,2013-04-16 01:44:00,
2013-04-15 20:49:00,75.6,74.3,29.74,SSE,155,10.0,15.4,96,0.00,,,-99.99,FreeWX 2.03,2013-04-16 01:49:00,
2013-04-15 20:54:00,75.4,74.1,29.74,SSE,154,9.0,15.2,96,0.00,,,-99.99,FreeWX 2.03,2013-04-16 01:54:00,
2013-04-15 20:59:00,75.4,74.1,29.74,SSE,154,9.0,14.3,96,0.00,,,-99.99,FreeWX 2.03,2013-04-16 01:59:00,
2013-04-15 21:04:00,75.2,73.9,29.74,SSE,153,9.0,13.9,96,0.00,,,-99.99,FreeWX 2.03,2013-04-16 02:04:00,
2013-04-15 21:09:00,75.2,74.3,29.74,SSE,151,10.0,14.3,97,0.00,,,-99.99,FreeWX 2.03,2013-04-16 02:09:00,
2013-04-15 21:14:00,75.2,74.3,29.74,SSE,154,10.0,15.9,97,0.00,,,-99.99,FreeWX 2.03,2013-04-16 02:14:00,
2013-04-15 21:19:00,74.8,73.9,29.74,SSE,157,10.0,15.2,97,0.00,,,-99.99,FreeWX 2.03,2013-04-16 02:19:00,
2013-04-15 21:24:00,74.7,73.8,29.74,SSE,159,10.0,16.3,97,0.00,,,-99.99,FreeWX 2.03,2013-04-16 02:24:00,
2013-04-15 21:29:00,74.5,73.9,29.76,SSE,158,10.0,14.8,98,0.00,,,-99.99,FreeWX 2.03,2013-04-16 02:29:00,
2013-04-15 21:34:00,74.5,73.9,29.76,SSE,159,10.0,15.9,98,0.00,,,-99.99,FreeWX 2.03,2013-04-16 02:34:00,
2013-04-15 21:39:00,74.5,73.9,29.76,SSE,161,10.0,14.8,98,0.00,,,-99.99,FreeWX 2.03,2013-04-16 02:39:00,
2013-04-15 21:44:00,74.3,73.8,29.76,SSE,160,10.0,15.2,98,0.00,,,-99.99,FreeWX 2.03,2013-04-16 02:44:00,
2013-04-15 21:49:00,74.3,73.8,29.76,SSE,157,10.0,15.2,98,0.00,,,-99.99,FreeWX 2.03,2013-04-16 02:49:00,
2013-04-15 21:54:00,74.3,73.8,29.76,SSE,159,11.0,18.6,98,0.00,,,-99.99,FreeWX 2.03,2013-04-16 02:54:00,
2013-04-15 21:59:00,74.5,74.1,29.76,SSE,161,11.0,16.3,99,0.00,,,-99.99,FreeWX 2.03,2013-04-16 02:59:00,
2013-04-15 22:04:00,74.5,74.1,29.76,SSE,161,10.0,13.9,99,0.00,,,-99.99,FreeWX 2.03,2013-04-16 03:04:00,
2013-04-15 22:09:00,74.5,74.1,29.76,SSE,163,8.0,14.3,99,0.00,,,-99.99,FreeWX 2.03,2013-04-16 03:09:00,
2013-04-15 22:14:00,74.5,74.1,29.76,SSE,167,8.0,12.5,99,0.00,,,-99.99,FreeWX 2.03,2013-04-16 03:14:00,
2013-04-15 22:19:00,74.7,74.3,29.76,SSE,168,8.0,13.4,99,0.00,,,-99.99,FreeWX 2.03,2013-04-16 03:19:00,
2013-04-15 22:24:00,74.8,74.5,29.76,SSE,167,8.0,12.5,99,0.00,,,-99.99,FreeWX 2.03,2013-04-16 03:24:00,
2013-04-15 22:29:00,74.7,74.3,29.76,SSE,168,8.0,12.5,99,0.00,,,-99.99,FreeWX 2.03,2013-04-16 03:29:00,
2013-04-15 22:34:00,74.7,74.3,29.76,South,169,8.0,12.5,99,0.00,,,-99.99,FreeWX 2.03,2013-04-16 03:34:00,
2013-04-15 22:39:00,74.7,74.3,29.76,South,170,8.0,13.4,99,0.00,,,-99.99,FreeWX 2.03,2013-04-16 03:39:00,
2013-04-15 22:44:00,74.8,74.5,29.79,South,173,8.0,13.4,99,0.00,,,-99.99,FreeWX 2.03,2013-04-16 03:44:00,
2013-04-15 22:49:00,75.0,74.7,29.79,South,174,8.0,13.0,99,0.00,,,-99.99,FreeWX 2.03,2013-04-16 03:49:00,
2013-04-15 22:54:00,75.0,74.7,29.79,South,174,9.0,14.3,99,0.00,,,-99.99,FreeWX 2.03,2013-04-16 03:54:00,
2013-04-15 22:59:00,74.8,74.5,29.76,South,173,9.0,13.9,99,0.00,,,-99.99,FreeWX 2.03,2013-04-16 03:59:00,
2013-04-15 23:04:00,74.8,74.5,29.76,South,170,8.0,13.0,99,0.00,,,-99.99,FreeWX 2.03,2013-04-16 04:04:00,
2013-04-15 23:09:00,74.8,74.5,29.76,South,169,9.0,13.9,99,0.00,,,-99.99,FreeWX 2.03,2013-04-16 04:09:00,
2013-04-15 23:14:00,74.8,74.3,29.79,South,170,9.0,14.3,98,0.00,,,-99.99,FreeWX 2.03,2013-04-16 04:14:00,
2013-04-15 23:19:00,74.7,74.1,29.79,South,172,8.0,13.0,98,0.00,,,-99.99,FreeWX 2.03,2013-04-16 04:19:00,
2013-04-15 23:24:00,74.7,74.1,29.79,South,175,8.0,13.0,98,0.00,,,-99.99,FreeWX 2.03,2013-04-16 04:24:00,
2013-04-15 23:29:00,74.5,73.9,29.79,South,175,9.0,16.8,98,0.00,,,-99.99,FreeWX 2.03,2013-04-16 04:29:00,
2013-04-15 23:34:00,74.5,73.9,29.79,South,177,10.0,14.8,98,0.00,,,-99.99,FreeWX 2.03,2013-04-16 04:34:00,
2013-04-15 23:39:00,74.5,73.9,29.79,South,176,9.0,14.3,98,0.00,,,-99.99,FreeWX 2.03,2013-04-16 04:39:00,
2013-04-15 23:44:00,74.5,73.9,29.79,South,174,9.0,13.9,98,0.00,,,-99.99,FreeWX 2.03,2013-04-16 04:44:00,
2013-04-15 23:49:00,74.5,73.6,29.79,South,174,9.0,13.9,97,0.00,,,-99.99,FreeWX 2.03,2013-04-16 04:49:00,
2013-04-15 23:54:00,74.7,73.8,29.79,South,177,9.0,13.0,97,0.00,,,-99.99,FreeWX 2.03,2013-04-16 04:54:00,
2013-04-15 23:59:00,75.0,74.1,29.79,South,178,9.0,16.3,97,0.00,,,-99.99,FreeWX 2.03,2013-04-16 04:59:00,